Darstellungsparameter: Aktuell verwendete Einstellungen:
Skalierung der Graphiken ... ?
xyx+y,   Skalierungsfaktor:      Skalierung: Modus: x, Faktor: 1
Darstellungszeitraum ... ?
Vom - - bis: - -   Zeitraum: 19.09.2017 - 19.09.2017
Min/Max/Avg-Anzeige ... ?
Zeige MMA aktuell
Zeige MMA Monat
Zeige MMA alles
Zeige --A aktuell
Zeige --A Monat
Zeige --A alles
Keine MMA-Anzeige
MMA:
Average (ber die Originaldaten)
MMA-Basis: 19.09.2017 - 19.09.2017
Quicknavigation für Darstellung... ?
Tage:      1T, 2T, 3T, 5T -1T -2T -3T -5T +1T +2T +3T +5T
Wochen: 1W, 2W, 3W -1W -2W -3W +1W +2W +3W
Monate: 1M, 3M, 6M -1M -3M -6M +1M +3M +6M
Jahre:    1J, 3J, 5J, 10J -1J -3J -5J -10J +1J +3J +5J +10J
Nutze für die Darstellung ... ?
Originaldaten oder Mittelwerte auf ...
Stundenbasis Tagesbasis Wochenbasis
Monatsbasis Jahresbasis      Datenbasis: Original-Daten
Darstellen als:
Statistik (Auto) Statistik J:M      Darstellung:
Zur Graphik,    zurück zur Übersicht aller Sensoren.
 
Tabellarische Datenbersicht: ?
 
Sensor: Nr:Datum:Temp:Abs-Feuchte:Windchill:Wind:
Aussen-T/F 1 19-09-2017 00:00:00 10.3 C 9.1 g/m*3 10.3 C 0 km/h
2 19-09-2017 00:05:00 10.4 C 9.16 g/m*3 10.4 C 0 km/h
3 19-09-2017 00:10:00 10.4 C 9.16 g/m*3 10.4 C 0 km/h
4 19-09-2017 00:15:00 10.4 C 9.06 g/m*3 10.4 C 0 km/h
5 19-09-2017 00:20:00 10.4 C 9.06 g/m*3 10.4 C 0 km/h
6 19-09-2017 00:25:00 10.4 C 9.06 g/m*3 10.4 C 0 km/h
7 19-09-2017 00:30:00 10.4 C 9.06 g/m*3 10.4 C 0 km/h
8 19-09-2017 00:35:00 10.4 C 9.06 g/m*3 9.83 C 6.4 km/h
9 19-09-2017 00:40:00 10.5 C 9.12 g/m*3 9.95 C 6.4 km/h
10 19-09-2017 00:45:00 10.6 C 9.17 g/m*3 10.6 C 1.6 km/h
11 19-09-2017 00:50:00 10.6 C 9.17 g/m*3 10.6 C 4.8 km/h
12 19-09-2017 00:55:00 10.6 C 9.17 g/m*3 10.6 C 0 km/h
13 19-09-2017 01:00:00 10.6 C 9.17 g/m*3 10.6 C 1.6 km/h
14 19-09-2017 01:05:00 10.6 C 9.17 g/m*3 10.6 C 1.6 km/h
15 19-09-2017 01:10:00 10.6 C 9.08 g/m*3 10.6 C 0 km/h
16 19-09-2017 01:15:00 10.6 C 9.08 g/m*3 10.6 C 0 km/h
17 19-09-2017 01:20:00 10.6 C 9.08 g/m*3 10.6 C 4.8 km/h
18 19-09-2017 01:25:00 10.6 C 9.08 g/m*3 10.6 C 1.6 km/h
19 19-09-2017 01:30:00 10.6 C 9.08 g/m*3 10.6 C 1.6 km/h
20 19-09-2017 01:35:00 10.7 C 9.13 g/m*3 10.7 C 1.6 km/h
21 19-09-2017 01:40:00 10.7 C 9.13 g/m*3 10.7 C 0 km/h
22 19-09-2017 01:45:00 10.7 C 9.04 g/m*3 10.7 C 1.6 km/h
23 19-09-2017 01:50:00 10.7 C 9.04 g/m*3 10.7 C 3.2 km/h
24 19-09-2017 01:55:00 10.7 C 9.04 g/m*3 10.7 C 3.2 km/h
25 19-09-2017 02:00:00 10.8 C 9.09 g/m*3 10.8 C 0 km/h
Sensor: Nr:Datum:Temp:Abs-Feuchte:Windchill:Wind:
Aussen-T/F 26 19-09-2017 02:05:00 10.8 C 9.09 g/m*3 10.8 C 1.6 km/h
27 19-09-2017 02:10:00 10.8 C 9.09 g/m*3 10.8 C 0 km/h
28 19-09-2017 02:15:00 10.8 C 8.99 g/m*3 10.8 C 4.8 km/h
29 19-09-2017 02:20:00 10.8 C 8.99 g/m*3 10.8 C 0 km/h
30 19-09-2017 02:25:00 10.8 C 8.99 g/m*3 10.8 C 1.6 km/h
31 19-09-2017 02:30:00 10.9 C 9.05 g/m*3 10.9 C 1.6 km/h
32 19-09-2017 02:35:00 10.9 C 9.05 g/m*3 10.9 C 1.6 km/h
33 19-09-2017 02:40:00 10.9 C 9.05 g/m*3 10.9 C 0 km/h
34 19-09-2017 02:45:00 10.9 C 9.05 g/m*3 10.9 C 1.6 km/h
35 19-09-2017 02:50:00 10.9 C 9.05 g/m*3 10.9 C 1.6 km/h
36 19-09-2017 02:55:00 10.9 C 9.05 g/m*3 10.9 C 1.6 km/h
37 19-09-2017 03:00:00 10.9 C 9.05 g/m*3 10.9 C 0 km/h
38 19-09-2017 03:05:00 10.8 C 8.99 g/m*3 10.8 C 0 km/h
39 19-09-2017 03:10:00 10.8 C 8.99 g/m*3 10.8 C 0 km/h
40 19-09-2017 03:15:00 10.8 C 8.99 g/m*3 10.8 C 1.6 km/h
41 19-09-2017 03:20:00 10.8 C 8.99 g/m*3 10.8 C 0 km/h
42 19-09-2017 03:25:00 10.8 C 8.99 g/m*3 10.8 C 1.6 km/h
43 19-09-2017 03:30:00 10.8 C 8.99 g/m*3 10.8 C 0 km/h
44 19-09-2017 03:35:00 10.8 C 8.99 g/m*3 10.8 C 0 km/h
45 19-09-2017 03:40:00 10.8 C 8.99 g/m*3 10.8 C 0 km/h
46 19-09-2017 03:45:00 10.8 C 8.99 g/m*3 10.8 C 0 km/h
47 19-09-2017 03:50:00 10.8 C 8.99 g/m*3 10.8 C 0 km/h
48 19-09-2017 03:55:00 10.8 C 8.99 g/m*3 10.8 C 0 km/h
49 19-09-2017 04:00:00 10.7 C 8.94 g/m*3 10.7 C 0 km/h
50 19-09-2017 04:05:00 10.7 C 9.04 g/m*3 10.7 C 0 km/h
Sensor: Nr:Datum:Temp:Abs-Feuchte:Windchill:Wind:
Aussen-T/F 51 19-09-2017 04:10:00 10.7 C 9.04 g/m*3 10.7 C 0 km/h
52 19-09-2017 04:15:00 10.7 C 9.04 g/m*3 10.7 C 0 km/h
53 19-09-2017 04:20:00 10.6 C 8.98 g/m*3 10.6 C 0 km/h
54 19-09-2017 04:25:00 10.6 C 8.98 g/m*3 10.6 C 0 km/h
55 19-09-2017 04:30:00 10.6 C 8.98 g/m*3 10.6 C 0 km/h
56 19-09-2017 04:35:00 10.6 C 8.98 g/m*3 10.6 C 0 km/h
57 19-09-2017 04:40:00 10.6 C 8.98 g/m*3 10.6 C 0 km/h
58 19-09-2017 04:45:00 10.6 C 8.98 g/m*3 10.6 C 0 km/h
59 19-09-2017 04:50:00 10.6 C 8.98 g/m*3 10.6 C 0 km/h
60 19-09-2017 04:55:00 10.5 C 8.92 g/m*3 10.5 C 1.6 km/h
61 19-09-2017 05:00:00 10.5 C 8.92 g/m*3 10.5 C 3.2 km/h
62 19-09-2017 05:05:00 10.5 C 9.02 g/m*3 10.5 C 1.6 km/h
63 19-09-2017 05:10:00 10.5 C 9.02 g/m*3 10.5 C 1.6 km/h
64 19-09-2017 05:15:00 10.4 C 8.96 g/m*3 10.4 C 0 km/h
65 19-09-2017 05:20:00 10.4 C 8.96 g/m*3 10.4 C 0 km/h
66 19-09-2017 05:25:00 10.4 C 8.87 g/m*3 10.4 C 4.8 km/h
67 19-09-2017 05:30:00 10.4 C 8.87 g/m*3 9.46 C 8.1 km/h
68 19-09-2017 05:35:00 10.4 C 8.96 g/m*3 10.4 C 3.2 km/h
69 19-09-2017 05:40:00 10.4 C 8.96 g/m*3 10.4 C 4.8 km/h
70 19-09-2017 05:45:00 10.4 C 8.96 g/m*3 10.4 C 1.6 km/h
71 19-09-2017 05:50:00 10.4 C 8.87 g/m*3 10.4 C 4.8 km/h
72 19-09-2017 05:55:00 10.4 C 8.87 g/m*3 10.4 C 1.6 km/h
73 19-09-2017 06:00:00 10.4 C 8.87 g/m*3 10.4 C 3.2 km/h
74 19-09-2017 06:05:00 10.4 C 8.87 g/m*3 10.4 C 1.6 km/h
75 19-09-2017 06:10:00 10.4 C 8.96 g/m*3 10.4 C 0 km/h
Sensor: Nr:Datum:Temp:Abs-Feuchte:Windchill:Wind:
Aussen-T/F 76 19-09-2017 06:15:00 10.4 C 8.87 g/m*3 10.4 C 4.8 km/h
77 19-09-2017 06:20:00 10.4 C 8.87 g/m*3 10.4 C 1.6 km/h
78 19-09-2017 06:25:00 10.4 C 8.96 g/m*3 10.4 C 4.8 km/h
79 19-09-2017 06:30:00 10.4 C 8.96 g/m*3 10.4 C 0 km/h
80 19-09-2017 06:35:00 10.4 C 8.96 g/m*3 10.4 C 0 km/h
81 19-09-2017 06:40:00 10.4 C 8.96 g/m*3 10.4 C 0 km/h
82 19-09-2017 06:45:00 10.4 C 8.96 g/m*3 10.4 C 0 km/h
83 19-09-2017 06:50:00 10.4 C 8.96 g/m*3 10.4 C 0 km/h
84 19-09-2017 06:55:00 10.4 C 8.96 g/m*3 10.4 C 0 km/h
85 19-09-2017 07:00:00 10.4 C 8.96 g/m*3 10.4 C 0 km/h
86 19-09-2017 07:05:00 10.4 C 8.96 g/m*3 10.4 C 0 km/h
87 19-09-2017 07:10:00 10.5 C 9.02 g/m*3 10.5 C 0 km/h
88 19-09-2017 07:15:00 10.5 C 9.02 g/m*3 10.5 C 0 km/h
89 19-09-2017 07:20:00 10.5 C 9.02 g/m*3 10.5 C 0 km/h
90 19-09-2017 07:25:00 10.5 C 9.02 g/m*3 10.5 C 0 km/h
91 19-09-2017 07:30:00 10.5 C 9.02 g/m*3 10.5 C 0 km/h
92 19-09-2017 07:35:00 10.5 C 9.02 g/m*3 10.5 C 0 km/h
93 19-09-2017 07:40:00 10.5 C 9.02 g/m*3 10.5 C 0 km/h
94 19-09-2017 07:45:00 10.5 C 9.12 g/m*3 10.5 C 0 km/h
95 19-09-2017 07:50:00 10.5 C 9.12 g/m*3 10.5 C 0 km/h
96 19-09-2017 07:55:00 10.5 C 9.12 g/m*3 10.5 C 0 km/h
97 19-09-2017 08:00:00 10.6 C 9.17 g/m*3 10.6 C 0 km/h
98 19-09-2017 08:05:00 10.6 C 9.17 g/m*3 10.6 C 0 km/h
99 19-09-2017 08:10:00 10.7 C 9.23 g/m*3 10.7 C 0 km/h
100 19-09-2017 08:15:00 10.7 C 9.23 g/m*3 10.7 C 0 km/h
Sensor: Nr:Datum:Temp:Abs-Feuchte:Windchill:Wind:
Aussen-T/F 101 19-09-2017 08:20:00 10.7 C 9.23 g/m*3 10.7 C 0 km/h
102 19-09-2017 08:25:00 10.8 C 9.29 g/m*3 10.8 C 0 km/h
103 19-09-2017 08:30:00 10.8 C 9.29 g/m*3 10.8 C 0 km/h
104 19-09-2017 08:35:00 10.8 C 9.29 g/m*3 10.8 C 1.6 km/h
105 19-09-2017 08:40:00 10.9 C 9.35 g/m*3 10.9 C 1.6 km/h
106 19-09-2017 08:45:00 11 C 9.41 g/m*3 10.52 C 6.4 km/h
107 19-09-2017 08:50:00 11.1 C 9.47 g/m*3 11.1 C 6.4 km/h
108 19-09-2017 08:55:00 11.2 C 9.53 g/m*3 11.2 C 1.6 km/h
109 19-09-2017 09:00:00 11.2 C 9.53 g/m*3 11.2 C 1.6 km/h
110 19-09-2017 09:05:00 11.3 C 9.59 g/m*3 11.3 C 3.2 km/h
111 19-09-2017 09:10:00 11.3 C 9.49 g/m*3 11.3 C 1.6 km/h
112 19-09-2017 09:15:00 11.4 C 9.55 g/m*3 11.4 C 3.2 km/h
113 19-09-2017 09:20:00 11.5 C 9.61 g/m*3 11.5 C 4.8 km/h
114 19-09-2017 09:25:00 11.6 C 9.67 g/m*3 11.6 C 3.2 km/h
115 19-09-2017 09:30:00 11.7 C 9.73 g/m*3 11.7 C 4.8 km/h
116 19-09-2017 09:35:00 11.8 C 9.79 g/m*3 11.8 C 3.2 km/h
117 19-09-2017 09:40:00 11.8 C 9.68 g/m*3 11.8 C 4.8 km/h
118 19-09-2017 09:45:00 11.9 C 9.74 g/m*3 11.9 C 4.8 km/h
119 19-09-2017 09:50:00 12.1 C 9.87 g/m*3 12.1 C 4.8 km/h
120 19-09-2017 09:55:00 12.2 C 9.82 g/m*3 12.2 C 4.8 km/h
121 19-09-2017 10:00:00 12.2 C 9.71 g/m*3 12.2 C 9.7 km/h
122 19-09-2017 10:05:00 12.3 C 9.77 g/m*3 12.3 C 4.8 km/h
123 19-09-2017 10:10:00 12.4 C 9.83 g/m*3 12.4 C 4.8 km/h
124 19-09-2017 10:15:00 12.6 C 9.96 g/m*3 12.6 C 4.8 km/h
125 19-09-2017 10:20:00 12.7 C 10.02 g/m*3 12.7 C 6.4 km/h
Sensor: Nr:Datum:Temp:Abs-Feuchte:Windchill:Wind:
Aussen-T/F 126 19-09-2017 10:25:00 12.8 C 9.86 g/m*3 12.8 C 9.7 km/h
127 19-09-2017 10:30:00 12.9 C 9.92 g/m*3 12.9 C 8.1 km/h
128 19-09-2017 10:35:00 12.9 C 10.03 g/m*3 12.9 C 4.8 km/h
129 19-09-2017 10:40:00 13 C 10.21 g/m*3 13 C 6.4 km/h
130 19-09-2017 10:45:00 12.9 C 10.14 g/m*3 12.9 C 6.4 km/h
131 19-09-2017 10:50:00 12.9 C 10.26 g/m*3 12.9 C 0 km/h
132 19-09-2017 10:55:00 12.9 C 10.26 g/m*3 12.9 C 6.4 km/h
133 19-09-2017 11:00:00 13 C 10.21 g/m*3 13 C 3.2 km/h
134 19-09-2017 11:05:00 13.1 C 10.38 g/m*3 13.1 C 6.4 km/h
135 19-09-2017 11:10:00 13.1 C 10.27 g/m*3 13.1 C 3.2 km/h
136 19-09-2017 11:15:00 13.2 C 10.33 g/m*3 13.2 C 3.2 km/h
137 19-09-2017 11:20:00 13.2 C 10.33 g/m*3 13.2 C 3.2 km/h
138 19-09-2017 11:25:00 13.3 C 10.51 g/m*3 13.3 C 4.8 km/h
139 19-09-2017 11:30:00 13.4 C 10.46 g/m*3 13.4 C 3.2 km/h
140 19-09-2017 11:35:00 13.6 C 10.47 g/m*3 13.6 C 6.4 km/h
141 19-09-2017 11:40:00 13.7 C 10.54 g/m*3 13.7 C 4.8 km/h
142 19-09-2017 11:45:00 13.7 C 10.3 g/m*3 13.7 C 4.8 km/h
143 19-09-2017 11:50:00 13.8 C 10.37 g/m*3 13.8 C 4.8 km/h
144 19-09-2017 11:55:00 13.9 C 10.43 g/m*3 13.9 C 6.4 km/h
145 19-09-2017 12:00:00 14.1 C 10.68 g/m*3 14.1 C 6.4 km/h
146 19-09-2017 12:05:00 14.2 C 10.62 g/m*3 14.2 C 4.8 km/h
147 19-09-2017 12:10:00 14.2 C 10.26 g/m*3 14.2 C 3.2 km/h
148 19-09-2017 12:15:00 14.2 C 10.26 g/m*3 14.2 C 3.2 km/h
149 19-09-2017 12:20:00 14.2 C 9.89 g/m*3 14.2 C 0 km/h
150 19-09-2017 12:25:00 14.2 C 10.14 g/m*3 14.2 C 3.2 km/h
Sensor: Nr:Datum:Temp:Abs-Feuchte:Windchill:Wind:
Aussen-T/F 151 19-09-2017 12:30:00 14.2 C 10.38 g/m*3 14.2 C 1.6 km/h
152 19-09-2017 12:35:00 14.1 C 10.44 g/m*3 14.1 C 1.6 km/h
153 19-09-2017 12:40:00 14.1 C 10.68 g/m*3 14.1 C 0 km/h
154 19-09-2017 12:45:00 14 C 10.74 g/m*3 14 C 0 km/h
155 19-09-2017 12:50:00 13.9 C 10.79 g/m*3 13.9 C 0 km/h
156 19-09-2017 12:55:00 13.9 C 10.91 g/m*3 13.9 C 0 km/h
157 19-09-2017 13:00:00 13.9 C 11.03 g/m*3 13.9 C 0 km/h
158 19-09-2017 13:05:00 13.8 C 10.96 g/m*3 13.8 C 0 km/h
159 19-09-2017 13:10:00 13.8 C 10.96 g/m*3 13.8 C 0 km/h
160 19-09-2017 13:15:00 13.8 C 11.08 g/m*3 13.8 C 0 km/h
161 19-09-2017 13:20:00 13.9 C 11.15 g/m*3 13.9 C 0 km/h
162 19-09-2017 13:25:00 13.9 C 11.15 g/m*3 13.9 C 0 km/h
163 19-09-2017 13:30:00 13.9 C 11.15 g/m*3 13.9 C 0 km/h
164 19-09-2017 13:35:00 13.9 C 11.27 g/m*3 13.9 C 1.6 km/h
165 19-09-2017 13:40:00 13.9 C 11.15 g/m*3 13.9 C 1.6 km/h
166 19-09-2017 13:45:00 13.7 C 10.89 g/m*3 13.7 C 3.2 km/h
167 19-09-2017 13:50:00 13.6 C 10.83 g/m*3 13.6 C 1.6 km/h
168 19-09-2017 13:55:00 13.6 C 10.83 g/m*3 13.6 C 1.6 km/h
169 19-09-2017 14:00:00 13.8 C 11.2 g/m*3 13.8 C 0 km/h
170 19-09-2017 14:05:00 14 C 11.34 g/m*3 14 C 0 km/h
171 19-09-2017 14:10:00 14.3 C 11.67 g/m*3 14.3 C 0 km/h
172 19-09-2017 14:15:00 14.4 C 11.62 g/m*3 14.4 C 0 km/h
173 19-09-2017 14:20:00 14.5 C 11.69 g/m*3 14.5 C 0 km/h
174 19-09-2017 14:25:00 14.6 C 11.76 g/m*3 14.6 C 0 km/h
175 19-09-2017 14:30:00 14.6 C 11.76 g/m*3 14.6 C 3.2 km/h
Sensor: Nr:Datum:Temp:Abs-Feuchte:Windchill:Wind:
Aussen-T/F 176 19-09-2017 14:35:00 14.3 C 11.06 g/m*3 14.3 C 8.1 km/h
177 19-09-2017 14:40:00 13.9 C 10.55 g/m*3 13.9 C 11.3 km/h
178 19-09-2017 14:45:00 13.6 C 10.36 g/m*3 13.6 C 11.3 km/h
179 19-09-2017 14:50:00 13.4 C 10.46 g/m*3 13.4 C 0 km/h
180 19-09-2017 14:55:00 13.3 C 10.51 g/m*3 13.3 C 0 km/h
181 19-09-2017 15:00:00 13.3 C 10.63 g/m*3 13.3 C 0 km/h
182 19-09-2017 15:05:00 13.4 C 10.69 g/m*3 13.4 C 0 km/h
183 19-09-2017 15:10:00 13.4 C 10.81 g/m*3 13.4 C 0 km/h
184 19-09-2017 15:15:00 13.4 C 10.81 g/m*3 13.4 C 0 km/h
185 19-09-2017 15:20:00 13.4 C 10.81 g/m*3 13.4 C 0 km/h
186 19-09-2017 15:25:00 13.4 C 10.93 g/m*3 13.4 C 0 km/h
187 19-09-2017 15:30:00 13.3 C 10.74 g/m*3 13.3 C 0 km/h
188 19-09-2017 15:35:00 13.2 C 10.68 g/m*3 13.2 C 0 km/h
189 19-09-2017 15:40:00 13.3 C 10.86 g/m*3 13.3 C 0 km/h
190 19-09-2017 15:45:00 13.6 C 11.18 g/m*3 13.6 C 0 km/h
191 19-09-2017 15:50:00 13.5 C 10.88 g/m*3 13.5 C 1.6 km/h
192 19-09-2017 15:55:00 13.5 C 10.88 g/m*3 13.5 C 1.6 km/h
193 19-09-2017 16:00:00 13.5 C 10.76 g/m*3 13.5 C 0 km/h
194 19-09-2017 16:05:00 13.6 C 10.95 g/m*3 13.6 C 0 km/h
195 19-09-2017 16:10:00 13.7 C 11.13 g/m*3 13.7 C 0 km/h
196 19-09-2017 16:15:00 13.6 C 10.95 g/m*3 13.6 C 0 km/h
197 19-09-2017 16:20:00 13.5 C 10.88 g/m*3 13.5 C 0 km/h
198 19-09-2017 16:25:00 13.4 C 10.81 g/m*3 13.4 C 1.6 km/h
199 19-09-2017 16:30:00 13.2 C 10.68 g/m*3 13.2 C 4.8 km/h
200 19-09-2017 16:35:00 13.1 C 10.73 g/m*3 13.1 C 0 km/h
Sensor: Nr:Datum:Temp:Abs-Feuchte:Windchill:Wind:
Aussen-T/F 201 19-09-2017 16:40:00 13.1 C 10.73 g/m*3 13.1 C 0 km/h
202 19-09-2017 16:45:00 13.2 C 10.91 g/m*3 13.2 C 0 km/h
203 19-09-2017 16:50:00 13.3 C 10.98 g/m*3 13.3 C 0 km/h
204 19-09-2017 16:55:00 13.4 C 11.04 g/m*3 13.4 C 0 km/h
205 19-09-2017 17:00:00 13.6 C 11.18 g/m*3 13.6 C 0 km/h
206 19-09-2017 17:05:00 13.7 C 11.25 g/m*3 13.7 C 0 km/h
207 19-09-2017 17:10:00 13.8 C 11.32 g/m*3 13.8 C 0 km/h
208 19-09-2017 17:15:00 13.8 C 11.32 g/m*3 13.8 C 0 km/h
209 19-09-2017 17:20:00 13.9 C 11.39 g/m*3 13.9 C 0 km/h
210 19-09-2017 17:25:00 14 C 11.46 g/m*3 14 C 0 km/h
211 19-09-2017 17:30:00 14 C 11.46 g/m*3 14 C 0 km/h
212 19-09-2017 17:35:00 13.9 C 11.27 g/m*3 13.9 C 0 km/h
213 19-09-2017 17:40:00 13.8 C 11.2 g/m*3 13.8 C 0 km/h
214 19-09-2017 17:45:00 13.8 C 11.2 g/m*3 13.8 C 0 km/h
215 19-09-2017 17:50:00 13.7 C 11.13 g/m*3 13.7 C 0 km/h
216 19-09-2017 17:55:00 13.9 C 11.39 g/m*3 13.9 C 0 km/h
217 19-09-2017 18:00:00 14.4 C 11.87 g/m*3 14.4 C 0 km/h
218 19-09-2017 18:05:00 14.8 C 12.16 g/m*3 14.8 C 0 km/h
219 19-09-2017 18:10:00 15.1 C 12.39 g/m*3 15.1 C 0 km/h
220 19-09-2017 18:15:00 15.3 C 12.41 g/m*3 15.3 C 0 km/h
221 19-09-2017 18:20:00 15.4 C 12.35 g/m*3 15.4 C 0 km/h
222 19-09-2017 18:25:00 15.2 C 11.94 g/m*3 15.2 C 0 km/h
223 19-09-2017 18:30:00 14.9 C 11.6 g/m*3 14.9 C 0 km/h
224 19-09-2017 18:35:00 14.6 C 11.39 g/m*3 14.6 C 0 km/h
225 19-09-2017 18:40:00 14.3 C 11.18 g/m*3 14.3 C 0 km/h
Sensor: Nr:Datum:Temp:Abs-Feuchte:Windchill:Wind:
Aussen-T/F 226 19-09-2017 18:45:00 14.1 C 11.04 g/m*3 14.1 C 0 km/h
227 19-09-2017 18:50:00 13.9 C 10.91 g/m*3 13.9 C 0 km/h
228 19-09-2017 18:55:00 13.7 C 10.89 g/m*3 13.7 C 0 km/h
229 19-09-2017 19:00:00 13.6 C 10.83 g/m*3 13.6 C 0 km/h
230 19-09-2017 19:05:00 13.5 C 10.76 g/m*3 13.5 C 0 km/h
231 19-09-2017 19:10:00 13.4 C 10.81 g/m*3 13.4 C 0 km/h
232 19-09-2017 19:15:00 13.3 C 10.74 g/m*3 13.3 C 0 km/h
233 19-09-2017 19:20:00 13.3 C 10.74 g/m*3 13.3 C 0 km/h
234 19-09-2017 19:25:00 13.2 C 10.68 g/m*3 13.2 C 0 km/h
235 19-09-2017 19:30:00 13.1 C 10.61 g/m*3 13.1 C 0 km/h
236 19-09-2017 19:35:00 13 C 10.55 g/m*3 13 C 0 km/h
237 19-09-2017 19:40:00 12.9 C 10.48 g/m*3 12.9 C 0 km/h
238 19-09-2017 19:45:00 12.8 C 10.42 g/m*3 12.8 C 0 km/h
239 19-09-2017 19:50:00 12.7 C 10.46 g/m*3 12.7 C 0 km/h
240 19-09-2017 19:55:00 12.7 C 10.46 g/m*3 12.7 C 0 km/h
241 19-09-2017 20:00:00 12.6 C 10.4 g/m*3 12.6 C 0 km/h
242 19-09-2017 20:05:00 12.6 C 10.4 g/m*3 12.6 C 0 km/h
243 19-09-2017 20:10:00 12.4 C 10.27 g/m*3 12.4 C 0 km/h
244 19-09-2017 20:15:00 12.4 C 10.27 g/m*3 12.4 C 0 km/h
245 19-09-2017 20:20:00 12.3 C 10.21 g/m*3 12.3 C 1.6 km/h
246 19-09-2017 20:25:00 12.2 C 10.14 g/m*3 12.2 C 0 km/h
247 19-09-2017 20:30:00 12.2 C 10.14 g/m*3 12.2 C 0 km/h
248 19-09-2017 20:35:00 12.1 C 10.19 g/m*3 12.1 C 0 km/h
249 19-09-2017 20:40:00 11.9 C 9.96 g/m*3 11.9 C 0 km/h
250 19-09-2017 20:45:00 11.8 C 9.89 g/m*3 11.8 C 0 km/h
Sensor: Nr:Datum:Temp:Abs-Feuchte:Windchill:Wind:
Aussen-T/F 251 19-09-2017 20:50:00 11.7 C 9.94 g/m*3 11.7 C 0 km/h
252 19-09-2017 20:55:00 11.6 C 9.77 g/m*3 11.6 C 1.6 km/h
253 19-09-2017 21:00:00 11.5 C 9.81 g/m*3 11.5 C 0 km/h
254 19-09-2017 21:05:00 11.4 C 9.75 g/m*3 11.4 C 0 km/h
255 19-09-2017 21:10:00 11.3 C 9.69 g/m*3 11.3 C 0 km/h
256 19-09-2017 21:15:00 11.3 C 9.69 g/m*3 11.3 C 0 km/h
257 19-09-2017 21:20:00 11.2 C 9.63 g/m*3 11.2 C 0 km/h
258 19-09-2017 21:25:00 11.1 C 9.57 g/m*3 11.1 C 0 km/h
259 19-09-2017 21:30:00 11 C 9.51 g/m*3 11 C 0 km/h
260 19-09-2017 21:35:00 10.9 C 9.45 g/m*3 10.9 C 0 km/h
261 19-09-2017 21:40:00 10.8 C 9.39 g/m*3 10.8 C 0 km/h
262 19-09-2017 21:45:00 10.8 C 9.39 g/m*3 10.8 C 0 km/h
263 19-09-2017 21:50:00 10.7 C 9.33 g/m*3 10.7 C 0 km/h
264 19-09-2017 21:55:00 10.6 C 9.27 g/m*3 10.6 C 0 km/h
265 19-09-2017 22:00:00 10.6 C 9.27 g/m*3 10.6 C 0 km/h
266 19-09-2017 22:05:00 10.5 C 9.21 g/m*3 10.5 C 0 km/h
267 19-09-2017 22:10:00 10.4 C 9.16 g/m*3 10.4 C 0 km/h
268 19-09-2017 22:15:00 10.4 C 9.16 g/m*3 10.4 C 0 km/h
269 19-09-2017 22:20:00 10.3 C 9.1 g/m*3 10.3 C 0 km/h
270 19-09-2017 22:25:00 10.3 C 9.19 g/m*3 10.3 C 0 km/h
271 19-09-2017 22:30:00 10.3 C 9.19 g/m*3 10.3 C 0 km/h
272 19-09-2017 22:35:00 10.2 C 9.14 g/m*3 10.2 C 0 km/h
273 19-09-2017 22:40:00 10.2 C 9.14 g/m*3 10.2 C 0 km/h
274 19-09-2017 22:45:00 10.1 C 9.08 g/m*3 10.1 C 0 km/h
275 19-09-2017 22:50:00 10.1 C 9.08 g/m*3 10.1 C 0 km/h
Sensor: Nr:Datum:Temp:Abs-Feuchte:Windchill:Wind:
Aussen-T/F 276 19-09-2017 22:55:00 10.1 C 9.08 g/m*3 10.1 C 0 km/h
277 19-09-2017 23:00:00 10.1 C 9.08 g/m*3 10.1 C 0 km/h
278 19-09-2017 23:05:00 10.1 C 9.08 g/m*3 10.1 C 0 km/h
279 19-09-2017 23:10:00 10.1 C 9.08 g/m*3 10.1 C 0 km/h
280 19-09-2017 23:15:00 10 C 9.02 g/m*3 10 C 0 km/h
281 19-09-2017 23:20:00 9.9 C 8.96 g/m*3 9.9 C 0 km/h
282 19-09-2017 23:25:00 9.8 C 8.91 g/m*3 9.8 C 0 km/h
283 19-09-2017 23:30:00 9.8 C 8.91 g/m*3 9.8 C 0 km/h
284 19-09-2017 23:35:00 9.8 C 8.91 g/m*3 9.8 C 0 km/h
285 19-09-2017 23:40:00 9.8 C 8.91 g/m*3 9.8 C 0 km/h
286 19-09-2017 23:45:00 9.8 C 8.91 g/m*3 9.8 C 0 km/h
287 19-09-2017 23:50:00 9.8 C 8.91 g/m*3 9.8 C 0 km/h
288 19-09-2017 23:55:00 9.8 C 8.91 g/m*3 9.8 C 0 km/h

Legende:
   Min
   Max


Maximal/Minimal-Werte vom 19.09.2017 - 19.09.2017

Sensor Min Max Avg
Temp
(Aussen-T/F)
9.8 °C
19-09-2017  23:25:00
15.4 °C
19-09-2017  18:20:00
11.96 °C
Abs-Feuchte
(Aussen-T/F)
8.87 g/m*3
19-09-2017  05:25:00
12.41 g/m*3
19-09-2017  18:15:00
9.85 g/m*3
Windchill
(Aussen-T/F)
9.46 C
19-09-2017  05:30:00
15.4 C
19-09-2017  18:20:00
11.91 C

Die Daten stammen von einer Davis Vantage Pro 2 Wetter-Station und werden unter Linux mit der Software wview2wettercgi und aufbereitet. Alle Angaben erfolgen ohne Gewähr für ihre Vollständigkeit oder Richtigkeit.
Kontakt: Rainer Krienke krienke@uni-koblenz.de . Meine Webseiten an der Uni Koblenz oder privat.
Version: $Revision: 0.78 $